GLOBALSTAR M037 [+]

Last updated on Fri Dec 29 2023 00:02:56 GMT+0000 (Greenwich Mean Time)

1 25652U 99012D 23362.14706381 -.00000050 00000+0 29830-3 0 9997 2 25652 52.0025 19.4815 0002072 81.4720 27.5548 12.62392382143497
UTC large
Height (km)
Speed (km/s)
/
Latitude / Longitude
Inclination (degrees)
Orbital Period (minutes)
Azimuth
Elevation
Range (km)
Doppler Factor

Next 0 passes for location: London (51.5072 / 0.1276)

Sorry there are no passes over London.